Year,Month,Day,Hour,Minute,Value (Times are PST for windgust in km/hr)
2017,06,15,00,00,1.60
2017,06,15,00,01,1.60
2017,06,15,00,02,1.60
2017,06,15,00,03,3.20
2017,06,15,00,04,3.20
2017,06,15,00,05,4.80
2017,06,15,00,06,3.20
2017,06,15,00,07,1.60
2017,06,15,00,08,4.80
2017,06,15,00,09,3.20
2017,06,15,00,10,1.60
2017,06,15,00,11,3.20
2017,06,15,00,12,3.20
2017,06,15,00,13,1.60
2017,06,15,00,14,8.10
2017,06,15,00,15,4.80
2017,06,15,00,16,6.40
2017,06,15,00,17,6.40
2017,06,15,00,18,3.20
2017,06,15,00,19,3.20
2017,06,15,00,20,6.40
2017,06,15,00,21,3.20
2017,06,15,00,22,3.20
2017,06,15,00,23,4.80
2017,06,15,00,24,11.30
2017,06,15,00,25,6.40
2017,06,15,00,26,3.20
2017,06,15,00,27,3.20
2017,06,15,00,28,3.20
2017,06,15,00,29,4.80
2017,06,15,00,30,4.80
2017,06,15,00,31,4.80
2017,06,15,00,32,3.20
2017,06,15,00,33,9.60
2017,06,15,00,34,4.80
2017,06,15,00,35,8.10
2017,06,15,00,36,6.40
2017,06,15,00,37,9.60
2017,06,15,00,38,4.80
2017,06,15,00,39,4.80
2017,06,15,00,40,4.80
2017,06,15,00,41,1.60
2017,06,15,00,42,3.20
2017,06,15,00,43,4.80
2017,06,15,00,44,3.20
2017,06,15,00,45,3.20
2017,06,15,00,46,1.60
2017,06,15,00,47,4.80
2017,06,15,00,48,1.60
2017,06,15,00,49,6.40
2017,06,15,00,50,4.80
2017,06,15,00,51,11.30
2017,06,15,00,52,8.10
2017,06,15,00,53,3.20
2017,06,15,00,54,9.60
2017,06,15,00,55,11.30
2017,06,15,00,56,8.10
2017,06,15,00,57,9.60
2017,06,15,00,58,6.40
2017,06,15,00,59,6.40
2017,06,15,01,00,14.50
2017,06,15,01,01,11.30
2017,06,15,01,02,4.80
2017,06,15,01,03,6.40
2017,06,15,01,04,8.10
2017,06,15,01,05,6.40
2017,06,15,01,06,9.60
2017,06,15,01,07,14.50
2017,06,15,01,08,12.90
2017,06,15,01,09,14.50
2017,06,15,01,10,12.90
2017,06,15,01,11,4.80
2017,06,15,01,12,8.10
2017,06,15,01,13,3.20
2017,06,15,01,14,12.90
2017,06,15,01,15,9.60
2017,06,15,01,16,9.60
2017,06,15,01,17,6.40
2017,06,15,01,18,11.30
2017,06,15,01,19,9.60
2017,06,15,01,20,6.40
2017,06,15,01,21,9.60
2017,06,15,01,22,4.80
2017,06,15,01,23,3.20
2017,06,15,01,24,3.20
2017,06,15,01,25,8.10
2017,06,15,01,26,6.40
2017,06,15,01,27,6.40
2017,06,15,01,28,6.40
2017,06,15,01,29,4.80
2017,06,15,01,30,6.40
2017,06,15,01,31,8.10
2017,06,15,01,32,4.80
2017,06,15,01,33,6.40
2017,06,15,01,34,4.80
2017,06,15,01,35,3.20
2017,06,15,01,36,8.10
2017,06,15,01,37,9.60
2017,06,15,01,38,4.80
2017,06,15,01,39,4.80
2017,06,15,01,40,6.40
2017,06,15,01,41,11.30
2017,06,15,01,42,8.10
2017,06,15,01,43,6.40
2017,06,15,01,44,6.40
2017,06,15,01,45,16.10
2017,06,15,01,46,6.40
2017,06,15,01,47,8.10
2017,06,15,01,48,8.10
2017,06,15,01,49,6.40
2017,06,15,01,50,4.80
2017,06,15,01,51,9.60
2017,06,15,01,52,8.10
2017,06,15,01,53,6.40
2017,06,15,01,54,6.40
2017,06,15,01,55,11.30
2017,06,15,01,56,11.30
2017,06,15,01,57,3.20
2017,06,15,01,58,8.10
2017,06,15,01,59,9.60
2017,06,15,02,00,6.40
2017,06,15,02,01,4.80
2017,06,15,02,02,4.80
2017,06,15,02,03,6.40
2017,06,15,02,04,4.80
2017,06,15,02,05,4.80
2017,06,15,02,06,3.20
2017,06,15,02,07,14.50
2017,06,15,02,08,8.10
2017,06,15,02,09,8.10
2017,06,15,02,10,9.60
2017,06,15,02,11,8.10
2017,06,15,02,12,11.30
2017,06,15,02,13,6.40
2017,06,15,02,14,9.60
2017,06,15,02,15,9.60
2017,06,15,02,16,6.40
2017,06,15,02,17,8.10
2017,06,15,02,18,6.40
2017,06,15,02,19,8.10
2017,06,15,02,20,6.40
2017,06,15,02,21,4.80
2017,06,15,02,22,4.80
2017,06,15,02,23,12.90
2017,06,15,02,24,11.30
2017,06,15,02,25,12.90
2017,06,15,02,26,16.10
2017,06,15,02,27,11.30
2017,06,15,02,28,11.30
2017,06,15,02,29,6.40
2017,06,15,02,30,9.60
2017,06,15,02,31,9.60
2017,06,15,02,32,12.90
2017,06,15,02,33,8.10
2017,06,15,02,34,6.40
2017,06,15,02,35,11.30
2017,06,15,02,36,9.60
2017,06,15,02,37,12.90
2017,06,15,02,38,11.30
2017,06,15,02,39,6.40
2017,06,15,02,40,3.20
2017,06,15,02,41,8.10
2017,06,15,02,42,8.10
2017,06,15,02,43,6.40
2017,06,15,02,44,8.10
2017,06,15,02,45,12.90
2017,06,15,02,46,16.10
2017,06,15,02,47,14.50
2017,06,15,02,48,9.60
2017,06,15,02,49,11.30
2017,06,15,02,50,8.10
2017,06,15,02,51,6.40
2017,06,15,02,52,12.90
2017,06,15,02,53,12.90
2017,06,15,02,54,6.40
2017,06,15,02,55,11.30
2017,06,15,02,56,3.20
2017,06,15,02,57,12.90
2017,06,15,02,58,11.30
2017,06,15,02,59,8.10
2017,06,15,03,00,14.50
2017,06,15,03,01,12.90
2017,06,15,03,02,9.60
2017,06,15,03,03,11.30
2017,06,15,03,04,12.90
2017,06,15,03,05,9.60
2017,06,15,03,06,11.30
2017,06,15,03,07,9.60
2017,06,15,03,08,9.60
2017,06,15,03,09,8.10
2017,06,15,03,10,6.40
2017,06,15,03,11,17.70
2017,06,15,03,12,9.60
2017,06,15,03,13,9.60
2017,06,15,03,14,6.40
2017,06,15,03,15,3.20
2017,06,15,03,16,9.60
2017,06,15,03,17,6.40
2017,06,15,03,18,11.30
2017,06,15,03,19,14.50
2017,06,15,03,20,11.30
2017,06,15,03,21,29.00
2017,06,15,03,22,9.60
2017,06,15,03,23,11.30
2017,06,15,03,24,12.90
2017,06,15,03,25,11.30
2017,06,15,03,26,9.60
2017,06,15,03,27,11.30
2017,06,15,03,28,8.10
2017,06,15,03,29,12.90
2017,06,15,03,30,12.90
2017,06,15,03,31,8.10
2017,06,15,03,32,22.50
2017,06,15,03,33,12.90
2017,06,15,03,34,6.40
2017,06,15,03,35,12.90
2017,06,15,03,36,8.10
2017,06,15,03,37,16.10
2017,06,15,03,38,9.60
2017,06,15,03,39,12.90
2017,06,15,03,40,6.40
2017,06,15,03,41,14.50
2017,06,15,03,42,11.30
2017,06,15,03,43,11.30
2017,06,15,03,44,16.10
2017,06,15,03,45,12.90
2017,06,15,03,46,4.80
2017,06,15,03,47,12.90
2017,06,15,03,48,11.30
2017,06,15,03,49,14.50
2017,06,15,03,50,11.30
2017,06,15,03,51,6.40
2017,06,15,03,52,16.10
2017,06,15,03,53,9.60
2017,06,15,03,54,12.90
2017,06,15,03,55,16.10
2017,06,15,03,56,19.30
2017,06,15,03,57,12.90
2017,06,15,03,58,11.30
2017,06,15,03,59,12.90
2017,06,15,04,00,20.90
2017,06,15,04,01,16.10
2017,06,15,04,02,12.90
2017,06,15,04,03,12.90
2017,06,15,04,04,14.50
2017,06,15,04,05,17.70
2017,06,15,04,06,11.30
2017,06,15,04,07,9.60
2017,06,15,04,08,16.10
2017,06,15,04,09,19.30
2017,06,15,04,10,17.70
2017,06,15,04,11,14.50
2017,06,15,04,12,16.10
2017,06,15,04,13,16.10
2017,06,15,04,14,11.30
2017,06,15,04,15,8.10
2017,06,15,04,16,6.40
2017,06,15,04,17,20.90
2017,06,15,04,18,8.10
2017,06,15,04,19,9.60
2017,06,15,04,20,11.30
2017,06,15,04,21,14.50
2017,06,15,04,22,17.70
2017,06,15,04,23,17.70
2017,06,15,04,24,14.50
2017,06,15,04,25,9.60
2017,06,15,04,26,12.90
2017,06,15,04,27,14.50
2017,06,15,04,28,17.70
2017,06,15,04,29,20.90
2017,06,15,04,30,16.10
2017,06,15,04,31,16.10
2017,06,15,04,32,16.10
2017,06,15,04,33,17.70
2017,06,15,04,34,16.10
2017,06,15,04,35,24.20
2017,06,15,04,36,19.30
2017,06,15,04,37,14.50
2017,06,15,04,38,16.10
2017,06,15,04,39,20.90
2017,06,15,04,40,20.90
2017,06,15,04,41,20.90
2017,06,15,04,42,14.50
2017,06,15,04,43,22.50
2017,06,15,04,44,12.90
2017,06,15,04,45,20.90
2017,06,15,04,46,22.50
2017,06,15,04,47,12.90
2017,06,15,04,48,24.20
2017,06,15,04,49,17.70
2017,06,15,04,50,16.10
2017,06,15,04,51,20.90
2017,06,15,04,52,14.50
2017,06,15,04,53,14.50
2017,06,15,04,54,12.90
2017,06,15,04,55,20.90
2017,06,15,04,56,14.50
2017,06,15,04,57,19.30
2017,06,15,04,58,20.90
2017,06,15,04,59,12.90
2017,06,15,05,00,20.90
2017,06,15,05,01,25.70
2017,06,15,05,02,14.50
2017,06,15,05,03,17.70
2017,06,15,05,04,20.90
2017,06,15,05,05,20.90
2017,06,15,05,06,16.10
2017,06,15,05,07,16.10
2017,06,15,05,08,17.70
2017,06,15,05,09,14.50
2017,06,15,05,10,11.30
2017,06,15,05,11,25.70
2017,06,15,05,12,20.90
2017,06,15,05,13,12.90
2017,06,15,05,14,14.50
2017,06,15,05,15,8.10
2017,06,15,05,16,20.90
2017,06,15,05,17,12.90
2017,06,15,05,18,16.10
2017,06,15,05,19,19.30
2017,06,15,05,20,12.90
2017,06,15,05,21,17.70
2017,06,15,05,22,9.60
2017,06,15,05,23,22.50
2017,06,15,05,24,19.30
2017,06,15,05,25,17.70
2017,06,15,05,26,17.70
2017,06,15,05,27,17.70
2017,06,15,05,28,12.90
2017,06,15,05,29,16.10
2017,06,15,05,30,11.30
2017,06,15,05,31,12.90
2017,06,15,05,32,20.90
2017,06,15,05,33,14.50
2017,06,15,05,34,14.50
2017,06,15,05,35,16.10
2017,06,15,05,36,20.90
2017,06,15,05,37,20.90
2017,06,15,05,38,9.60
2017,06,15,05,39,12.90
2017,06,15,05,40,12.90
2017,06,15,05,41,8.10
2017,06,15,05,42,17.70
2017,06,15,05,43,16.10
2017,06,15,05,44,12.90
2017,06,15,05,45,12.90
2017,06,15,05,46,20.90
2017,06,15,05,47,14.50
2017,06,15,05,48,14.50
2017,06,15,05,49,14.50
2017,06,15,05,50,12.90
2017,06,15,05,51,11.30
2017,06,15,05,52,14.50
2017,06,15,05,53,19.30
2017,06,15,05,54,16.10
2017,06,15,05,55,14.50
2017,06,15,05,56,9.60
2017,06,15,05,57,12.90
2017,06,15,05,58,17.70
2017,06,15,05,59,16.10
2017,06,15,06,00,17.70
2017,06,15,06,01,14.50
2017,06,15,06,02,16.10
2017,06,15,06,03,11.30
2017,06,15,06,04,19.30
2017,06,15,06,05,27.40
2017,06,15,06,06,14.50
2017,06,15,06,07,16.10
2017,06,15,06,08,14.50
2017,06,15,06,09,16.10
2017,06,15,06,10,16.10
2017,06,15,06,11,9.60
2017,06,15,06,12,11.30
2017,06,15,06,13,19.30
2017,06,15,06,14,12.90
2017,06,15,06,15,16.10
2017,06,15,06,16,12.90
2017,06,15,06,17,11.30
2017,06,15,06,18,19.30
2017,06,15,06,19,14.50
2017,06,15,06,20,12.90
2017,06,15,06,21,12.90
2017,06,15,06,22,19.30
2017,06,15,06,23,19.30
2017,06,15,06,24,17.70
2017,06,15,06,25,20.90
2017,06,15,06,26,24.20
2017,06,15,06,27,17.70
2017,06,15,06,28,29.00
2017,06,15,06,29,14.50
2017,06,15,06,30,20.90
2017,06,15,06,31,12.90
2017,06,15,06,32,19.30
2017,06,15,06,33,22.50
2017,06,15,06,34,25.70
2017,06,15,06,35,14.50
2017,06,15,06,36,27.40
2017,06,15,06,37,17.70
2017,06,15,06,38,12.90
2017,06,15,06,39,12.90
2017,06,15,06,40,19.30
2017,06,15,06,41,17.70
2017,06,15,06,42,16.10
2017,06,15,06,43,16.10
2017,06,15,06,44,12.90
2017,06,15,06,45,20.90
2017,06,15,06,46,17.70
2017,06,15,06,47,14.50
2017,06,15,06,48,19.30
2017,06,15,06,49,19.30
2017,06,15,06,50,17.70
2017,06,15,06,51,19.30
2017,06,15,06,52,11.30
2017,06,15,06,53,12.90
2017,06,15,06,54,9.60
2017,06,15,06,55,12.90
2017,06,15,06,56,11.30
2017,06,15,06,57,22.50
2017,06,15,06,58,16.10
2017,06,15,06,59,19.30
2017,06,15,07,00,19.30
2017,06,15,07,01,25.70
2017,06,15,07,02,25.70
2017,06,15,07,03,17.70
2017,06,15,07,04,17.70
2017,06,15,07,05,19.30
2017,06,15,07,06,17.70
2017,06,15,07,07,14.50
2017,06,15,07,08,20.90
2017,06,15,07,09,25.70
2017,06,15,07,10,20.90
2017,06,15,07,11,27.40
2017,06,15,07,12,22.50
2017,06,15,07,13,22.50
2017,06,15,07,14,30.60
2017,06,15,07,15,25.70
2017,06,15,07,16,24.20
2017,06,15,07,17,25.70
2017,06,15,07,18,25.70
2017,06,15,07,19,12.90
2017,06,15,07,20,14.50
2017,06,15,07,21,11.30
2017,06,15,07,22,14.50
2017,06,15,07,23,25.70
2017,06,15,07,24,25.70
2017,06,15,07,25,25.70
2017,06,15,07,26,17.70
2017,06,15,07,27,19.30
2017,06,15,07,28,32.20
2017,06,15,07,29,19.30
2017,06,15,07,30,20.90
2017,06,15,07,31,12.90
2017,06,15,07,32,8.10
2017,06,15,07,33,16.10
2017,06,15,07,34,24.20
2017,06,15,07,35,22.50
2017,06,15,07,36,20.90
2017,06,15,07,37,29.00
2017,06,15,07,38,20.90
2017,06,15,07,39,29.00
2017,06,15,07,40,24.20
2017,06,15,07,41,22.50
2017,06,15,07,42,29.00
2017,06,15,07,43,17.70
2017,06,15,07,44,27.40
2017,06,15,07,45,22.50
2017,06,15,07,46,12.90
2017,06,15,07,47,20.90
2017,06,15,07,48,19.30
2017,06,15,07,49,20.90
2017,06,15,07,50,20.90
2017,06,15,07,51,16.10
2017,06,15,07,52,20.90
2017,06,15,07,53,14.50
2017,06,15,07,54,25.70
2017,06,15,07,55,17.70
2017,06,15,07,56,14.50
2017,06,15,07,57,19.30
2017,06,15,07,58,24.20
2017,06,15,07,59,29.00
2017,06,15,08,00,27.40
2017,06,15,08,01,29.00
2017,06,15,08,02,16.10
2017,06,15,08,03,16.10
2017,06,15,08,04,17.70
2017,06,15,08,05,22.50
2017,06,15,08,06,17.70
2017,06,15,08,07,27.40
2017,06,15,08,08,12.90
2017,06,15,08,09,24.20
2017,06,15,08,10,19.30
2017,06,15,08,11,22.50
2017,06,15,08,12,19.30
2017,06,15,08,13,20.90
2017,06,15,08,14,12.90
2017,06,15,08,15,17.70
2017,06,15,08,16,22.50
2017,06,15,08,17,16.10
2017,06,15,08,18,19.30
2017,06,15,08,19,20.90
2017,06,15,08,20,20.90
2017,06,15,08,21,20.90
2017,06,15,08,22,27.40
2017,06,15,08,23,27.40
2017,06,15,08,24,38.60
2017,06,15,08,25,19.30
2017,06,15,08,26,22.50
2017,06,15,08,27,11.30
2017,06,15,08,28,16.10
2017,06,15,08,29,14.50
2017,06,15,08,30,11.30
2017,06,15,08,31,14.50
2017,06,15,08,32,12.90
2017,06,15,08,33,16.10
2017,06,15,08,34,24.20
2017,06,15,08,35,25.70
2017,06,15,08,36,20.90
2017,06,15,08,37,20.90
2017,06,15,08,38,27.40
2017,06,15,08,39,27.40
2017,06,15,08,40,24.20
2017,06,15,08,41,20.90
2017,06,15,08,42,22.50
2017,06,15,08,43,16.10
2017,06,15,08,44,24.20
2017,06,15,08,45,30.60
2017,06,15,08,46,14.50
2017,06,15,08,47,16.10
2017,06,15,08,48,27.40
2017,06,15,08,49,29.00
2017,06,15,08,50,19.30
2017,06,15,08,51,27.40
2017,06,15,08,52,20.90
2017,06,15,08,53,25.70
2017,06,15,08,54,16.10
2017,06,15,08,55,19.30
2017,06,15,08,56,19.30
2017,06,15,08,57,20.90
2017,06,15,08,58,32.20
2017,06,15,08,59,12.90
2017,06,15,09,00,16.10
2017,06,15,09,01,27.40
2017,06,15,09,02,25.70
2017,06,15,09,03,11.30
2017,06,15,09,04,24.20
2017,06,15,09,05,22.50
2017,06,15,09,06,27.40
2017,06,15,09,07,24.20
2017,06,15,09,08,27.40
2017,06,15,09,09,29.00
2017,06,15,09,10,20.90
2017,06,15,09,11,11.30
2017,06,15,09,12,17.70
2017,06,15,09,13,29.00
2017,06,15,09,14,22.50
2017,06,15,09,15,20.90
2017,06,15,09,16,19.30
2017,06,15,09,17,17.70
2017,06,15,09,18,24.20
2017,06,15,09,19,17.70
2017,06,15,09,20,27.40
2017,06,15,09,21,19.30
2017,06,15,09,22,20.90
2017,06,15,09,23,19.30
2017,06,15,09,24,25.70
2017,06,15,09,25,20.90
2017,06,15,09,26,20.90
2017,06,15,09,27,22.50
2017,06,15,09,28,25.70
2017,06,15,09,29,9.60
2017,06,15,09,30,27.40
2017,06,15,09,31,20.90
2017,06,15,09,32,19.30
2017,06,15,09,33,29.00
2017,06,15,09,34,32.20
2017,06,15,09,35,30.60
2017,06,15,09,36,22.50
2017,06,15,09,37,24.20
2017,06,15,09,38,22.50
2017,06,15,09,39,51.50
2017,06,15,09,40,20.90
2017,06,15,09,41,17.70
2017,06,15,09,42,25.70
2017,06,15,09,43,25.70
2017,06,15,09,44,27.40
2017,06,15,09,45,32.20
2017,06,15,09,46,17.70
2017,06,15,09,47,24.20
2017,06,15,09,48,24.20
2017,06,15,09,49,33.80
2017,06,15,09,50,25.70
2017,06,15,09,51,24.20
2017,06,15,09,52,27.40
2017,06,15,09,53,24.20
2017,06,15,09,54,24.20
2017,06,15,09,55,29.00
2017,06,15,09,56,22.50
2017,06,15,09,57,25.70
2017,06,15,09,58,14.50
2017,06,15,09,59,27.40
2017,06,15,10,00,27.40
2017,06,15,10,01,17.70
2017,06,15,10,02,24.20
2017,06,15,10,03,19.30
2017,06,15,10,04,33.80
2017,06,15,10,05,24.20
2017,06,15,10,06,19.30
2017,06,15,10,07,19.30
2017,06,15,10,08,20.90
2017,06,15,10,09,19.30
2017,06,15,10,10,22.50
2017,06,15,10,11,19.30
2017,06,15,10,12,14.50
2017,06,15,10,13,16.10
2017,06,15,10,14,16.10
2017,06,15,10,15,22.50
2017,06,15,10,16,16.10
2017,06,15,10,17,24.20
2017,06,15,10,18,25.70
2017,06,15,10,19,12.90
2017,06,15,10,20,16.10
2017,06,15,10,21,24.20
2017,06,15,10,22,20.90
2017,06,15,10,23,17.70
2017,06,15,10,24,17.70
2017,06,15,10,25,20.90
2017,06,15,10,26,19.30
2017,06,15,10,27,40.20
2017,06,15,10,28,33.80
2017,06,15,10,29,19.30
2017,06,15,10,30,22.50
2017,06,15,10,31,32.20
2017,06,15,10,32,19.30
2017,06,15,10,33,24.20
2017,06,15,10,34,20.90
2017,06,15,10,35,19.30
2017,06,15,10,36,27.40
2017,06,15,10,37,12.90
2017,06,15,10,38,30.60
2017,06,15,10,39,22.50
2017,06,15,10,40,11.30
2017,06,15,10,41,20.90
2017,06,15,10,42,20.90
2017,06,15,10,43,8.10
2017,06,15,10,44,19.30
2017,06,15,10,45,24.20
2017,06,15,10,46,14.50
2017,06,15,10,47,25.70
2017,06,15,10,48,25.70
2017,06,15,10,49,29.00
2017,06,15,10,50,24.20
2017,06,15,10,51,20.90
2017,06,15,10,52,14.50
2017,06,15,10,53,22.50
2017,06,15,10,54,29.00
2017,06,15,10,55,22.50
2017,06,15,10,56,32.20
2017,06,15,10,57,19.30
2017,06,15,10,58,20.90
2017,06,15,10,59,12.90
2017,06,15,11,00,19.30
2017,06,15,11,01,25.70
2017,06,15,11,02,25.70
2017,06,15,11,03,20.90
2017,06,15,11,04,22.50
2017,06,15,11,05,27.40
2017,06,15,11,06,22.50
2017,06,15,11,07,20.90
2017,06,15,11,08,17.70
2017,06,15,11,09,29.00
2017,06,15,11,10,19.30
2017,06,15,11,11,32.20
2017,06,15,11,12,20.90
2017,06,15,11,13,25.70
2017,06,15,11,14,27.40
2017,06,15,11,15,16.10
2017,06,15,11,16,33.80
2017,06,15,11,17,19.30
2017,06,15,11,18,22.50
2017,06,15,11,19,16.10
2017,06,15,11,20,27.40
2017,06,15,11,21,22.50
2017,06,15,11,22,19.30
2017,06,15,11,23,30.60
2017,06,15,11,24,38.60
2017,06,15,11,25,25.70
2017,06,15,11,26,29.00
2017,06,15,11,27,19.30
2017,06,15,11,28,16.10
2017,06,15,11,29,24.20
2017,06,15,11,30,24.20
2017,06,15,11,31,22.50
2017,06,15,11,32,33.80
2017,06,15,11,33,29.00
2017,06,15,11,34,27.40
2017,06,15,11,35,32.20
2017,06,15,11,36,8.10
2017,06,15,11,37,20.90
2017,06,15,11,38,30.60
2017,06,15,11,39,24.20
2017,06,15,11,40,27.40
2017,06,15,11,41,22.50
2017,06,15,11,42,11.30
2017,06,15,11,43,16.10
2017,06,15,11,44,22.50
2017,06,15,11,45,24.20
2017,06,15,11,46,22.50
2017,06,15,11,47,33.80
2017,06,15,11,48,27.40
2017,06,15,11,49,27.40
2017,06,15,11,50,22.50
2017,06,15,11,51,35.40
2017,06,15,11,52,29.00
2017,06,15,11,53,41.80
2017,06,15,11,54,22.50
2017,06,15,11,55,24.20
2017,06,15,11,56,19.30
2017,06,15,11,57,19.30
2017,06,15,11,58,30.60
2017,06,15,11,59,41.80
2017,06,15,12,00,19.30
2017,06,15,12,01,20.90
2017,06,15,12,02,19.30
2017,06,15,12,03,25.70
2017,06,15,12,04,20.90
2017,06,15,12,05,16.10
2017,06,15,12,06,24.20
2017,06,15,12,07,24.20
2017,06,15,12,08,16.10
2017,06,15,12,09,20.90
2017,06,15,12,10,20.90
2017,06,15,12,11,17.70
2017,06,15,12,12,30.60
2017,06,15,12,13,32.20
2017,06,15,12,14,22.50
2017,06,15,12,15,29.00
2017,06,15,12,16,24.20
2017,06,15,12,17,37.00
2017,06,15,12,18,27.40
2017,06,15,12,19,30.60
2017,06,15,12,20,22.50
2017,06,15,12,21,25.70
2017,06,15,12,22,32.20
2017,06,15,12,23,24.20
2017,06,15,12,24,22.50
2017,06,15,12,25,25.70
2017,06,15,12,26,14.50
2017,06,15,12,27,27.40
2017,06,15,12,28,25.70
2017,06,15,12,29,25.70
2017,06,15,12,30,25.70
2017,06,15,12,31,19.30
2017,06,15,12,32,30.60
2017,06,15,12,33,24.20
2017,06,15,12,34,33.80
2017,06,15,12,35,20.90
2017,06,15,12,36,38.60
2017,06,15,12,37,19.30
2017,06,15,12,38,24.20
2017,06,15,12,39,16.10
2017,06,15,12,40,27.40
2017,06,15,12,41,35.40
2017,06,15,12,42,19.30
2017,06,15,12,43,32.20
2017,06,15,12,44,22.50
2017,06,15,12,45,22.50
2017,06,15,12,46,25.70
2017,06,15,12,47,35.40
2017,06,15,12,48,29.00
2017,06,15,12,49,19.30
2017,06,15,12,50,30.60
2017,06,15,12,51,22.50
2017,06,15,12,52,14.50
2017,06,15,12,53,37.00
2017,06,15,12,54,27.40
2017,06,15,12,55,22.50
2017,06,15,12,56,20.90
2017,06,15,12,57,27.40
2017,06,15,12,58,22.50
2017,06,15,12,59,22.50
2017,06,15,13,00,30.60
2017,06,15,13,01,37.00
2017,06,15,13,02,20.90
2017,06,15,13,03,27.40
2017,06,15,13,04,24.20
2017,06,15,13,05,19.30
2017,06,15,13,06,24.20
2017,06,15,13,07,30.60
2017,06,15,13,08,37.00
2017,06,15,13,09,24.20
2017,06,15,13,10,16.10
2017,06,15,13,11,22.50
2017,06,15,13,12,30.60
2017,06,15,13,13,19.30
2017,06,15,13,14,27.40
2017,06,15,13,15,30.60
2017,06,15,13,16,14.50
2017,06,15,13,17,25.70
2017,06,15,13,18,17.70
2017,06,15,13,19,17.70
2017,06,15,13,20,25.70
2017,06,15,13,21,24.20
2017,06,15,13,22,35.40
2017,06,15,13,23,33.80
2017,06,15,13,24,35.40
2017,06,15,13,25,25.70
2017,06,15,13,26,32.20
2017,06,15,13,27,24.20
2017,06,15,13,28,22.50
2017,06,15,13,29,30.60
2017,06,15,13,30,29.00
2017,06,15,13,31,30.60
2017,06,15,13,32,25.70
2017,06,15,13,33,16.10
2017,06,15,13,34,19.30
2017,06,15,13,35,22.50
2017,06,15,13,36,35.40
2017,06,15,13,37,16.10
2017,06,15,13,38,16.10
2017,06,15,13,39,29.00
2017,06,15,13,40,19.30
2017,06,15,13,41,27.40
2017,06,15,13,42,27.40
2017,06,15,13,43,30.60
2017,06,15,13,44,29.00
2017,06,15,13,45,22.50
2017,06,15,13,46,33.80
2017,06,15,13,47,24.20
2017,06,15,13,48,30.60
2017,06,15,13,49,25.70
2017,06,15,13,50,20.90
2017,06,15,13,51,19.30
2017,06,15,13,52,14.50
2017,06,15,13,53,22.50
2017,06,15,13,54,22.50
2017,06,15,13,55,20.90
2017,06,15,13,56,24.20
2017,06,15,13,57,24.20
2017,06,15,13,58,20.90
2017,06,15,13,59,35.40
2017,06,15,14,00,16.10
2017,06,15,14,01,16.10
2017,06,15,14,02,22.50
2017,06,15,14,03,32.20
2017,06,15,14,04,19.30
2017,06,15,14,05,27.40
2017,06,15,14,06,45.10
2017,06,15,14,07,30.60
2017,06,15,14,08,27.40
2017,06,15,14,09,27.40
2017,06,15,14,10,38.60
2017,06,15,14,11,25.70
2017,06,15,14,12,20.90
2017,06,15,14,13,25.70
2017,06,15,14,14,25.70
2017,06,15,14,15,33.80
2017,06,15,14,16,24.20
2017,06,15,14,17,24.20
2017,06,15,14,18,27.40
2017,06,15,14,19,29.00
2017,06,15,14,20,30.60
2017,06,15,14,21,16.10
2017,06,15,14,22,38.60
2017,06,15,14,23,19.30
2017,06,15,14,24,17.70
2017,06,15,14,25,24.20
2017,06,15,14,26,12.90
2017,06,15,14,27,25.70
2017,06,15,14,28,37.00
2017,06,15,14,29,27.40
2017,06,15,14,30,25.70
2017,06,15,14,31,17.70
2017,06,15,14,32,16.10
2017,06,15,14,33,17.70
2017,06,15,14,34,22.50
2017,06,15,14,35,24.20
2017,06,15,14,36,17.70
2017,06,15,14,37,25.70
2017,06,15,14,38,37.00
2017,06,15,14,39,29.00
2017,06,15,14,40,32.20
2017,06,15,14,41,25.70
2017,06,15,14,42,14.50
2017,06,15,14,43,25.70
2017,06,15,14,44,27.40
2017,06,15,14,45,19.30
2017,06,15,14,46,20.90
2017,06,15,14,47,24.20
2017,06,15,14,48,33.80
2017,06,15,14,49,27.40
2017,06,15,14,50,29.00
2017,06,15,14,51,25.70
2017,06,15,14,52,22.50
2017,06,15,14,53,12.90
2017,06,15,14,54,25.70
2017,06,15,14,55,25.70
2017,06,15,14,56,16.10
2017,06,15,14,57,32.20
2017,06,15,14,58,14.50
2017,06,15,14,59,19.30
2017,06,15,15,00,24.20
2017,06,15,15,01,17.70
2017,06,15,15,02,19.30
2017,06,15,15,03,20.90
2017,06,15,15,04,20.90
2017,06,15,15,05,16.10
2017,06,15,15,06,19.30
2017,06,15,15,07,14.50
2017,06,15,15,08,17.70
2017,06,15,15,09,14.50
2017,06,15,15,10,20.90
2017,06,15,15,11,22.50
2017,06,15,15,12,14.50
2017,06,15,15,13,20.90
2017,06,15,15,14,20.90
2017,06,15,15,15,20.90
2017,06,15,15,16,22.50
2017,06,15,15,17,27.40
2017,06,15,15,18,30.60
2017,06,15,15,19,19.30
2017,06,15,15,20,37.00
2017,06,15,15,21,20.90
2017,06,15,15,22,22.50
2017,06,15,15,23,29.00
2017,06,15,15,24,16.10
2017,06,15,15,25,16.10
2017,06,15,15,26,27.40
2017,06,15,15,27,27.40
2017,06,15,15,28,27.40
2017,06,15,15,29,30.60
2017,06,15,15,30,20.90
2017,06,15,15,31,19.30
2017,06,15,15,32,9.60
2017,06,15,15,33,27.40
2017,06,15,15,34,25.70
2017,06,15,15,35,32.20
2017,06,15,15,36,43.50
2017,06,15,15,37,22.50
2017,06,15,15,38,27.40
2017,06,15,15,39,29.00
2017,06,15,15,40,22.50
2017,06,15,15,41,25.70
2017,06,15,15,42,19.30
2017,06,15,15,43,30.60
2017,06,15,15,44,17.70
2017,06,15,15,45,27.40
2017,06,15,15,46,20.90
2017,06,15,15,47,24.20
2017,06,15,15,48,16.10
2017,06,15,15,49,25.70
2017,06,15,15,50,32.20
2017,06,15,15,51,19.30
2017,06,15,15,52,27.40
2017,06,15,15,53,20.90
2017,06,15,15,54,25.70
2017,06,15,15,55,25.70
2017,06,15,15,56,29.00
2017,06,15,15,57,8.10
2017,06,15,15,58,24.20
2017,06,15,15,59,24.20
2017,06,15,16,00,25.70
2017,06,15,16,01,24.20
2017,06,15,16,02,25.70
2017,06,15,16,03,25.70
2017,06,15,16,04,24.20
2017,06,15,16,05,16.10
2017,06,15,16,06,30.60
2017,06,15,16,07,25.70
2017,06,15,16,08,12.90
2017,06,15,16,09,24.20
2017,06,15,16,10,20.90
2017,06,15,16,11,25.70
2017,06,15,16,12,24.20
2017,06,15,16,13,32.20
2017,06,15,16,14,27.40
2017,06,15,16,15,17.70
2017,06,15,16,16,24.20
2017,06,15,16,17,25.70
2017,06,15,16,18,33.80
2017,06,15,16,19,27.40
2017,06,15,16,20,16.10
2017,06,15,16,21,29.00
2017,06,15,16,22,22.50
2017,06,15,16,23,32.20
2017,06,15,16,24,25.70
2017,06,15,16,25,32.20
2017,06,15,16,26,24.20
2017,06,15,16,27,25.70
2017,06,15,16,28,12.90
2017,06,15,16,29,22.50
2017,06,15,16,30,24.20
2017,06,15,16,31,22.50
2017,06,15,16,32,30.60
2017,06,15,16,33,17.70
2017,06,15,16,34,19.30
2017,06,15,16,35,22.50
2017,06,15,16,36,19.30
2017,06,15,16,37,32.20
2017,06,15,16,38,14.50
2017,06,15,16,39,11.30
2017,06,15,16,40,22.50
2017,06,15,16,41,25.70
2017,06,15,16,42,16.10
2017,06,15,16,43,27.40
2017,06,15,16,44,19.30
2017,06,15,16,45,22.50
2017,06,15,16,46,27.40
2017,06,15,16,47,20.90
2017,06,15,16,48,27.40
2017,06,15,16,49,20.90
2017,06,15,16,50,25.70
2017,06,15,16,51,35.40
2017,06,15,16,52,19.30
2017,06,15,16,53,29.00
2017,06,15,16,54,19.30
2017,06,15,16,55,20.90
2017,06,15,16,56,32.20
2017,06,15,16,57,22.50
2017,06,15,16,58,22.50
2017,06,15,16,59,24.20
2017,06,15,17,00,19.30
2017,06,15,17,01,24.20
2017,06,15,17,02,20.90
2017,06,15,17,03,14.50
2017,06,15,17,04,20.90
2017,06,15,17,05,24.20
2017,06,15,17,06,27.40
2017,06,15,17,07,25.70
2017,06,15,17,08,12.90
2017,06,15,17,09,24.20
2017,06,15,17,10,16.10
2017,06,15,17,11,17.70
2017,06,15,17,12,25.70
2017,06,15,17,13,17.70
2017,06,15,17,14,16.10
2017,06,15,17,15,22.50
2017,06,15,17,16,29.00
2017,06,15,17,17,19.30
2017,06,15,17,18,29.00
2017,06,15,17,19,14.50
2017,06,15,17,20,20.90
2017,06,15,17,21,27.40
2017,06,15,17,22,25.70
2017,06,15,17,23,11.30
2017,06,15,17,24,22.50
2017,06,15,17,25,17.70
2017,06,15,17,26,14.50
2017,06,15,17,27,8.10